SL-12 DEB, 41641

Orbit data source: Space-Track

SL-12 DEB, 41641 is space debris in HEO originally from a launch on Thu, 25 Dec 2008 UTC launched from the Tyuratam Missile And Space Complex (TTMTR). Debris objects in space refer to the collection of defunct objects orbiting the Earth. Examples of debris include non-operational satellites, rocket bodies, and fragments generated from explosions, collisions, or faulty payload assembly.

Loading next visibility...
SL-12 DEB details
Identifier
41641, 2008-067M
Orbit
HEO
Last TLE update1 day ago
Origin
Flag of CISVVKO VKS (CIS)
ManufacturerRKKE
MissionSpacecraft
Bus & MotorUnknown
MassUnknown
Launch date (UTC)
2008-12-25 (16 years ago)
Launch vehicleUnknown
Launch site
Tyuratam Missile And Space Complex (TTMTR)
Object type
Payload
Rocket body
Debris
Shape & HBRUnknown
Radar Cross SectionMedium (>0.1 m² and <1 m²)

Expand to show TLE details & history

TLE from 1 day ago
0 SL-12 DEB
1 41641U 08067M   24360.38122144  .00001795  00000-0  83499-2 0  9994
2 41641  65.0357 327.3872 5647258 310.1049  12.5567  4.29073904131808
Epoch: 2024-12-25T09:08Z
Definitive object data (Epoch: 2024-12-25T09:08:57.532Z)
Latitude0.00006°
Longitude95.76324°
Altitude1,614.257 km
Speed8.652 km/s
True Right ascension21h 49m 30s
True Declination0° 00' 00"
Sunlit
Object was in daylight at TLE epoch
Visualization TLE readout
Latitude64.89547°
Longitude-167.30782°
Altitude13,499.571 km
Speed3.901 km/s
Apparent Right ascension03h 19m 20s
Apparent Declination47° 50' 04"
Sunlit
Object is in daylight
Visualization observer readout
Local Sidereal Time13:37:18
Azimuth343.196° N
Elevation0.627°
Doppler factor1
Orbital elements
Apogee altitude18,651.506 km
Perigee altitude584.59 km
Semi-major axis15,996.185 km
Eccentricity0.5647258
Inclination65.0357°
RAAN327.3872°
Arg. of periapsis310.1049°
True anomaly49.76846°
Mean anomaly12.5567°
Eccentric anomaly27.49444°
Mean motion1.0728 °/min
BSTAR0.0083499
Orbital period335.57 mins
Loading maneuver chart data...
Loading historical data...
Loading historical data...
Loading historical data...
Loading historical data...
Loading historical data...
Loading historical data...
Loading historical data...

SL-12 DEB Visibility forecast

Observer location: undefined°, undefined

Span
Click to sort rows by Start time (UTC) header in descending order
Start Az.
Max El. time (UTC)
Max El. Az.
Max El.
End time (UTC)
End Az.
176 mins2024-12-27 00:23:29.363Z225.262° WSW2024-12-27 00:39:29.363Z313.526° NW44.111°2024-12-27 03:19:29.363Z62.586° ENE
247 mins2024-12-27 06:26:29.363Z315.18° NNW2024-12-27 08:43:29.363Z89.693° E44.987°2024-12-27 10:33:29.363Z175.798° S
88 mins2024-12-27 12:47:29.363Z331.451° NNW2024-12-27 13:37:29.363Z313.005° NW17.581°2024-12-27 14:15:29.363Z300.511° NW
|